SCP
1 1 1 1 1 1 1 0 0 0 0 0 0 0 0 1 1 1 1 1 1 1 1 1 1 1 1 1 1 1 1 1 1 1 1 1 1 1 1 1 1 0 0
1 1 1 2 1 1 1 1 1 0 0 0 1 1 1 1 1 1 1 2 2 1 1 1 1 1 1 2 2 2 1 1 1 1 1 1 1 1 1 1 1 0 0
2 2 2 2 2 2 2 1 1 1 1 1 1 1 1 2 2 2 2 2 2 2 2 2 2 2 2 2 2 2 2 2 1 1 1 1 1 1 1 1 1 0 0
3 3 3 3 2 2 2 2 1 1 1 1 1 1 2 2 2 2 2 2 2 2 2 2 2 2 2 2 2 2 2 2 2 1 1 1 1 1 1 0 0 0 0
4 4 4 3 2 2 2 2 2 2 2 1 1 1 2 2 2 2 2 2 2 2 2 2 2 2 2 2 2 2 2 2 2 2 1 1 1 1 0 0 0 0 0
4 4 4 3 3 2 2 2 2 2 2 2 2 1 1 2 2 2 2 2 2 2 2 2 2 2 2 2 2 2 2 2 2 2 1 1 1 1 1 0 0 1 1
5 4 4 4 3 3 3 3 2 2 2 2 2 2 1 1 2 2 2 2 2 2 2 2 2 2 2 2 2 2 2 2 2 2 1 1 1 1 1 1 1 1 1
5 5 4 4 4 3 3 3 3 3 2 2 2 1 1 1 1 2 2 2 2 2 2 2 2 2 2 2 2 1 1 2 2 2 2 1 1 1 1 1 1 1 1
6 5 5 4 4 4 4 4 3 3 2 1 1 1 1 1 1 2 2 2 2 2 2 2 2 2 2 2 2 2 1 1 2 2 2 1 1 1 1 1 1 1 1
5 5 5 5 4 4 4 3 3 2 1 1 1 2 2 2 2 2 2 2 2 2 2 2 2 2 2 2 3 2 1 1 1 1 1 1 1 1 1 1 1 1 1
5 5 5 5 4 3 4 3 2 1 1 1 1 2 2 2 2 2 1 2 2 2 2 2 2 2 2 3 3 2 1 1 1 1 1 1 1 1 1 1 1 1 1
4 4 4 3 3 2 3 3 2 1 1 1 1 2 2 2 2 2 2 1 1 2 2 2 2 3 3 3 2 1 1 0 0 0 0 1 1 1 1 1 1 1 1
3 3 2 2 2 2 2 2 1 1 1 1 1 1 1 2 2 1 1 1 1 1 1 2 2 3 3 3 2 1 0 0 0 0 0 0 0 0 0 1 1 1 1
3 2 2 2 2 1 1 1 1 1 1 1 1 1 1 1 1 1 1 1 1 1 1 1 2 2 3 3 2 1 1 0 0 0 0 0 0 0 0 0 1 1 1
2 2 2 1 1 1 1 1 1 1 1 1 1 1 1 1 1 0 0 0 0 1 1 1 1 2 2 2 1 1 1 1 0 0 0 0 0 0 0 0 0 0 0
2 2 1 1 1 1 1 1 1 1 1 1 1 1 1 1 1 0 0 0 0 0 1 1 1 1 1 1 1 1 1 1 0 0 0 0 0 0 0 0 0 0 0
1 1 1 1 1 0 0 1 1 1 1 1 1 0 0 0 1 1 0 0 0 0 0 1 1 1 1 1 1 1 1 1 0 0 0 0 0 0 0 0 0 0 0
1 1 0 0 0 0 1 1 0 0 0 0 0 0 0 0 1 1 1 1 0 0 0 0 1 1 1 1 1 1 1 1 1 0 0 0 0 0 0 0 0 0 0
0 0 0 0 0 1 1 0 0 0 0 0 0 0 0 0 0 1 1 1 1 0 1 1 1 1 1 1 1 1 1 1 1 0 0 0 0 0 0 0 0 0 0
0 0 0 0 0 0 0 0 0 0 0 0 0 0 0 0 0 0 0 0 0 1 1 1 1 1 0 1 1 1 1 1 1 0 0 0 0 0 0 0 0 0 0
0 0 0 0 0 0 0 0 0 0 0 0 0 0 0 0 0 0 0 0 0 0 0 0 0 0 0 0 0 1 1 1 1 1 0 0 0 0 0 0 0 0 0
0 0 0 0 0 0 0 0 0 0 0 0 0 0 0 0 0 0 0 0 0 0 0 0 0 0 0 0 0 0 1 1 1 0 0 0 0 0 0 0 0 0 0
0 0 0 0 0 0 0 0 0 0 0 0 0 0 0 0 0 0 0 0 0 0 0 0 0 0 0 0 0 0 0 0 0 0 0 0 0 0 0 0 0 0 0
0 0 0 0 0 0 0 0 0 0 0 0 0 0 0 0 0 0 0 0 0 0 0 0 0 0 0 0 0 0 0 0 0 0 0 0 0 0 0 0 0 0 0
0 0 0 0 0 0 0 0 0 0 0 0 0 0 0 0 0 0 0 0 0 0 0 0 0 0 0 0 0 0 0 0 0 0 0 0 0 0 0 0 0 0 0
0 0 0 0 0 0 0 0 0 0 0 0 0 0 0 0 0 0 0 0 0 0 0 0 0 0 0 0 0 0 0 0 0 0 0 0 0 0 0 0 0 0 0
Wind_Speed
7 6 5 5 7 6 6 6 7 7 8 9 8 9 9 10 9 9 5 9 12 13 14 13 12 12 12 11 11 11 12 13 13 13 14 15 16 16 16 16 17 17 16
6 6 7 6 7 7 6 6 8 7 7 7 9 9 10 11 10 9 10 8 14 15 14 14 13 13 13 12 11 11 12 12 12 12 13 14 14 14 15 16 16 17 17
8 7 7 7 7 7 6 7 8 8 8 8 9 10 9 10 10 10 11 9 9 13 16 15 14 14 13 13 13 12 12 12 12 12 13 13 13 13 14 14 15 16 17
10 8 8 8 7 7 7 6 7 8 8 8 9 9 9 9 11 11 11 10 9 9 11 16 15 14 14 14 14 14 13 13 13 13 13 14 14 14 14 14 15 15 17
10 8 7 6 6 6 6 7 6 7 8 9 9 10 10 10 10 11 12 12 11 10 10 9 15 14 14 15 15 15 14 14 14 14 15 15 15 14 14 15 15 15 17
7 7 6 6 6 6 6 6 7 7 8 9 11 11 11 12 11 12 12 12 11 12 12 11 9 12 16 14 14 15 15 15 15 15 15 15 15 15 15 15 15 16 17
5 5 6 5 5 6 6 7 7 8 8 8 9 11 11 13 12 10 11 11 11 11 10 10 9 8 8 15 14 14 15 15 15 15 15 15 15 15 15 16 16 16 17
4 4 5 5 4 5 6 6 6 6 8 7 8 9 10 10 8 8 8 9 9 8 9 10 9 8 8 7 9 14 14 15 15 15 15 15 15 15 15 15 16 17 18
2 2 3 3 4 5 5 5 6 8 8 7 7 7 8 9 9 7 7 7 7 7 8 6 7 7 8 7 7 11 13 12 13 14 14 13 13 14 14 15 16 17 18
6 5 5 4 5 5 4 5 5 5 7 8 6 6 8 9 8 8 8 6 6 7 8 7 6 6 7 7 5 4 7 9 11 12 13 12 12 12 13 15 17 18 19
7 6 6 5 5 4 4 4 3 5 5 7 6 6 7 7 9 7 10 9 7 7 6 7 6 5 5 5 4 4 5 7 8 9 10 11 12 12 13 15 17 19 20
6 7 6 5 5 4 3 3 3 4 4 5 6 5 6 6 6 6 7 9 8 7 6 5 5 4 4 4 3 2 4 5 6 7 8 10 11 12 13 15 18 19 21
6 7 6 4 4 4 3 3 4 3 3 4 4 4 4 4 5 5 6 7 7 6 5 4 3 3 2 2 1 2 4 4 4 5 6 8 9 11 13 15 17 19 21
4 5 5 4 4 4 4 3 4 3 2 3 3 4 3 3 4 4 4 5 6 4 3 4 2 2 2 2 1 3 3 4 3 4 6 7 8 10 12 14 15 17 18
4 5 5 5 4 4 4 4 3 3 3 3 3 3 3 3 3 3 3 4 5 5 4 3 3 4 4 4 2 4 4 3 3 3 5 6 7 9 10 12 13 14 15
4 4 4 4 4 4 4 4 3 1 2 2 2 3 4 4 3 3 4 3 3 4 4 4 4 5 6 5 3 4 4 2 4 3 4 5 7 8 9 10 11 12 14
4 4 3 3 3 3 2 2 1 1 0 1 2 3 4 5 5 4 4 4 4 4 6 5 4 5 6 6 4 3 3 3 2 2 3 4 5 7 7 7 7 9 12
3 3 3 3 3 3 2 2 2 3 3 4 5 5 6 5 6 6 5 5 4 4 5 6 5 5 5 5 4 3 2 3 2 2 1 3 4 5 5 4 4 7 12
3 3 3 4 4 4 4 4 5 6 6 6 6 7 7 7 7 7 7 7 5 5 4 4 5 4 4 4 4 3 2 2 2 2 1 1 3 4 4 2 1 6 11
4 5 5 5 5 6 6 6 7 7 8 8 8 8 8 9 8 8 7 8 7 6 6 6 6 6 6 7 6 4 3 2 1 0 1 2 2 2 3 3 4 6 10
5 5 6 6 6 6 6 7 8 9 9 9 8 9 9 9 10 9 9 10 9 8 8 7 8 8 9 9 8 6 5 3 1 1 0 0 0 0 2 3 5 7 8
5 6 6 7 8 8 8 7 6 9 9 9 8 7 8 7 6 6 8 10 11 10 10 9 9 9 10 9 8 7 6 5 3 3 2 1 2 1 1 2 6 7 7
6 7 7 9 9 8 7 7 6 8 9 8 8 7 7 8 6 6 5 5 8 8 7 9 11 11 11 10 10 9 7 5 4 4 2 2 2 2 2 4 7 6 6
6 7 8 9 9 8 6 5 3 8 9 8 8 7 7 8 9 8 6 7 8 9 9 9 9 9 10 10 9 6 4 3 2 4 4 2 2 2 2 2 5 5 6
7 7 8 9 9 8 3 1 2 7 6 7 7 8 7 8 10 11 5 6 7 5 5 3 3 4 4 7 10 9 8 6 4 4 4 3 2 1 1 2 1 4 6
7 7 8 8 9 8 4 1 6 3 5 4 5 7 11 9 9 11 7 7 7 7 7 5 3 4 6 8 9 10 10 9 6 5 5 3 2 2 1 1 1 1 3
Wind_Direction
230 235 242 249 257 258 249 250 266 279 280 271 270 270 271 269 263 258 255 211 221 236 249 254 251 246 243 238 234 231 229 228 227 225 226 228 229 229 228 226 222 218 214
236 240 239 241 251 257 267 279 276 274 273 279 276 274 273 275 271 267 265 242 214 221 236 246 249 245 239 234 230 228 226 225 224 223 224 226 228 229 229 228 225 219 213
233 239 248 247 250 257 259 263 273 278 271 269 270 272 269 266 271 271 270 271 257 219 217 230 238 239 235 228 226 226 224 223 222 222 223 225 226 228 229 229 227 221 212
238 241 248 251 255 260 261 263 264 271 274 277 280 283 281 274 266 265 263 257 260 263 225 213 225 231 230 224 223 224 224 223 223 223 223 224 226 226 227 228 227 221 212
243 243 251 259 262 262 263 267 269 271 276 279 280 272 271 272 272 268 267 266 259 255 259 217 208 222 228 224 221 223 224 223 223 224 224 225 226 225 225 226 225 220 213
255 255 255 259 265 263 261 263 273 272 276 279 281 284 281 277 273 271 269 265 258 252 249 251 228 216 217 222 221 223 225 224 223 224 225 225 226 226 225 224 223 220 214
269 266 267 267 268 267 269 271 274 277 275 277 279 280 274 266 260 261 263 269 267 260 255 251 249 247 210 208 218 225 230 231 229 227 226 227 228 228 226 224 222 220 214
264 271 273 272 270 270 268 274 278 281 281 277 282 292 289 280 258 254 256 256 263 265 256 244 239 239 249 226 201 211 227 235 235 232 231 231 231 230 228 226 223 219 214
235 263 262 267 271 271 272 278 275 272 279 281 270 275 292 299 319 288 275 266 266 270 266 259 240 231 232 239 226 206 218 230 236 239 239 237 234 232 232 230 227 221 215
198 205 219 233 249 260 265 265 268 274 273 278 276 260 265 286 289 294 282 274 268 262 267 267 258 239 233 237 229 234 215 230 237 244 248 247 245 242 238 236 234 227 218
195 196 204 218 226 242 252 269 278 275 273 278 287 285 280 273 261 268 286 293 288 274 265 258 256 256 245 241 239 218 207 233 240 244 252 257 256 253 248 245 242 235 223
181 184 191 203 220 233 235 251 267 265 280 288 289 287 289 289 291 281 283 291 289 283 282 274 265 256 248 243 234 149 217 229 236 240 248 257 259 259 257 254 247 238 228
179 176 182 191 214 225 235 245 246 273 285 298 298 305 308 308 307 299 292 297 294 294 284 270 272 275 264 267 207 164 209 213 227 238 248 257 263 266 265 261 252 241 231
168 162 171 187 204 219 229 233 247 244 266 284 305 321 315 339 337 336 326 316 308 304 292 308 315 316 323 313 29 254 225 184 220 240 254 264 271 272 270 264 253 241 230
154 162 172 188 202 214 229 242 243 258 267 275 289 302 324 347 339 349 350 345 329 324 328 352 342 350 330 314 314 274 267 173 221 252 271 283 286 284 279 270 253 237 223
145 161 179 186 199 209 217 239 233 218 275 300 314 339 337 345 346 338 337 338 330 322 316 327 322 323 321 307 289 286 284 196 220 252 280 293 298 297 291 278 253 227 208
146 161 176 176 184 190 196 214 232 160 41 43 17 23 19 9 357 352 350 347 344 330 310 314 322 324 318 316 312 288 270 255 214 218 279 304 314 314 302 284 250 213 191
146 145 158 160 162 151 147 144 114 97 87 75 62 51 37 32 22 13 358 1 355 336 315 320 328 327 323 328 322 301 278 256 247 166 285 321 333 332 322 299 245 192 173
131 132 144 141 133 128 119 106 99 93 85 76 67 59 48 39 29 28 14 11 3 4 353 338 350 353 343 348 337 320 283 268 251 173 211 318 355 353 356 350 174 160 155
143 142 138 130 126 117 110 106 102 96 90 81 70 60 50 42 30 21 28 24 18 19 31 25 24 20 13 4 357 346 332 302 277 267 30 28 40 26 39 57 104 130 139
143 136 131 124 117 108 94 102 109 101 95 88 80 73 64 55 41 25 27 24 21 21 32 33 31 27 21 10 4 352 345 339 334 355 301 299 227 230 96 99 103 114 123
135 132 122 113 102 86 63 55 94 102 95 89 82 79 89 74 84 81 61 47 32 27 24 23 32 26 19 9 0 3 8 9 4 356 343 1 338 346 71 94 118 122 126
141 130 120 110 100 90 79 72 68 100 93 81 71 60 58 58 34 59 103 122 72 50 20 16 34 19 13 5 355 9 21 20 13 351 351 21 9 355 15 89 119 136 143
142 133 126 117 113 107 97 93 91 100 90 82 71 64 60 53 30 1 37 53 57 52 35 32 31 26 22 360 348 356 9 40 52 33 21 26 16 9 357 69 141 166 178
144 142 132 131 126 126 127 140 265 114 102 88 72 54 40 51 17 346 23 44 42 58 109 87 16 356 351 1 356 358 3 4 23 35 24 23 14 11 32 24 132 192 203
148 147 136 140 137 132 133 301 298 132 112 114 109 100 66 36 17 2 26 36 35 23 14 30 31 16 18 26 22 14 2 1 7 21 22 9 6 19 55 65 2 201 220